EW8832 Weather Reports


Display with metric or nautical units.
time (UTC)temp
F
wind
direction
speed
MPH
gust
MPH
rain 1hr
in
rain 24hr
in
rain mn
in
humidity
%
barometer
mb
20260906172025 98 307 3.0 8.0 0.00 0.00 0.00 36 1010.5
20260906171525 98 20 4.0 9.0 0.00 0.00 0.00 37 1010.6
20260906171026 98 77 3.0 9.0 0.00 0.00 0.00 39 1010.7
20260906170524 98 94 3.0 8.0 0.00 0.00 0.00 39 1010.8
20260906170023 98 300 2.0 5.0 0.00 0.00 0.00 40 1010.8
20260906165523 98 350 0.0 8.0 0.00 0.00 0.00 40 1010.9
20260906165024 97 15 2.0 8.0 0.00 0.00 0.00 40 1011.0
20260906164523 97 317 2.0 6.0 0.00 0.00 0.00 41 1011.1
20260906164022 96 11 1.0 5.0 0.00 0.00 0.00 42 1011.1
20260906163019 96 281 3.0 5.0 0.00 0.00 0.00 43 1011.2
20260906162519 95 296 2.0 7.0 0.00 0.00 0.00 43 1011.2
20260906162018 96 297 2.0 8.0 0.00 0.00 0.00 42 1011.3
20260906161518 96 313 4.0 8.0 0.00 0.00 0.00 42 1011.2
20260906161017 95 5 3.0 6.0 0.00 0.00 0.00 43 1011.2
20260906160516 95 360 3.0 6.0 0.00 0.00 0.00 44 1011.3
20260906160015 95 313 3.0 8.0 0.00 0.00 0.00 44 1011.3
20260906155514 95 329 3.0 8.0 0.00 0.00 0.00 45 1011.3
20260906155013 94 355 2.0 8.0 0.00 0.00 0.00 46 1011.3
20260906154529 93 300 4.0 9.0 0.00 0.00 0.00 47 1011.3
20260906154009 93 295 3.0 9.0 0.00 0.00 0.00 48 1011.5
20260906153015 92 292 4.0 9.0 0.00 0.00 0.00 48 1011.4
20260906152512 93 290 6.0 10.0 0.00 0.00 0.00 48 1011.4
20260906152007 92 331 5.0 10.0 0.00 0.00 0.00 49 1011.4
20260906151505 92 299 3.0 7.0 0.00 0.00 0.00 50 1011.3
20260906151004 91 290 3.0 7.0 0.00 0.00 0.00 51 1011.3
20260906150502 91 329 4.0 6.0 0.00 0.00 0.00 51 1011.4
20260906150004 90 296 3.0 7.0 0.00 0.00 0.00 52 1011.3
20260906145600 90 304 2.0 9.0 0.00 0.00 0.00 53 1011.3
20260906145059 90 274 4.0 9.0 0.00 0.00 0.00 52 1011.3
20260906144612 89 296 2.0 6.0 0.00 0.00 0.00 53 1011.3
20260906144057 89 302 2.0 5.0 0.00 0.00 0.00 54 1011.2
20260906143108 88 286 0.0 5.0 0.00 0.00 0.00 55 1011.3
20260906142555 88 276 2.0 6.0 0.00 0.00 0.00 56 1011.2
20260906142054 87 254 1.0 5.0 0.00 0.00 0.00 56 1011.3
20260906141553 87 283 3.0 5.0 0.00 0.00 0.00 56 1011.4
20260906141053 87 275 3.0 6.0 0.00 0.00 0.00 57 1011.4
20260906140552 86 252 1.0 4.0 0.00 0.00 0.00 58 1011.4
20260906140049 86 182 1.0 4.0 0.00 0.00 0.00 59 1011.3
20260906135548 85 182 1.0 4.0 0.00 0.00 0.00 60 1011.4
20260906135048 84 168 2.0 4.0 0.00 0.00 0.00 61 1011.3
20260906134551 84 166 1.0 3.0 0.00 0.00 0.00 63 1011.3
20260906134044 83 166 0.0 2.0 0.00 0.00 0.00 64 1011.3
20260906133053 82 166 0.0 2.0 0.00 0.00 0.00 66 1011.3
20260906132543 81 166 0.0 0.0 0.00 0.00 0.00 68 1011.2
20260906132042 80 167 0.0 1.0 0.00 0.00 0.00 70 1011.2
20260906131541 80 167 0.0 1.0 0.00 0.00 0.00 72 1011.1
20260906131040 79 167 0.0 2.0 0.00 0.00 0.00 73 1011.1
20260906130540 78 167 0.0 2.0 0.00 0.00 0.00 74 1011.0
20260906130044 78 167 0.0 1.0 0.00 0.00 0.00 75 1011.0
20260906125539 77 167 0.0 1.0 0.00 0.00 0.00 76 1010.9
20260906125039 76 167 0.0 1.0 0.00 0.00 0.00 78 1011.0
20260906124542 76 167 0.0 0.0 0.00 0.00 0.00 80 1010.9
20260906124038 75 167 0.0 0.0 0.00 0.00 0.00 80 1010.8
20260906123039 74 167 0.0 0.0 0.00 0.00 0.00 81 1010.7
20260906122536 74 167 0.0 0.0 0.00 0.00 0.00 81 1010.7
20260906122036 73 167 0.0 1.0 0.00 0.00 0.00 81 1010.6
20260906121536 73 167 0.0 0.0 0.00 0.00 0.00 81 1010.6
20260906121036 73 167 0.0 0.0 0.00 0.00 0.00 81 1010.6
20260906120538 74 167 0.0 0.0 0.00 0.00 0.00 81 1010.6
20260906120041 73 167 0.0 0.0 0.00 0.00 0.00 81 1010.6
20260906115536 74 167 0.0 0.0 0.00 0.00 0.00 80 1010.6
20260906115035 74 167 0.0 0.0 0.00 0.00 0.00 80 1010.6
20260906114545 74 167 0.0 0.0 0.00 0.00 0.00 80 1010.6
20260906114033 74 167 0.0 1.0 0.00 0.00 0.00 78 1010.5
20260906113033 74 167 0.0 1.0 0.00 0.00 0.00 79 1010.5
20260906112532 74 167 0.0 0.0 0.00 0.00 0.00 79 1010.4
20260906112032 74 167 0.0 0.0 0.00 0.00 0.00 79 1010.3
20260906111536 74 167 0.0 0.0 0.00 0.00 0.00 79 1010.3
20260906111031 74 167 0.0 0.0 0.00 0.00 0.00 79 1010.2
20260906110535 74 167 0.0 0.0 0.00 0.00 0.00 79 1010.3
20260906110030 75 167 0.0 0.0 0.00 0.00 0.00 78 1010.2
20260906105529 75 167 0.0 0.0 0.00 0.00 0.00 78 1010.2
20260906105029 75 167 0.0 0.0 0.00 0.00 0.00 78 1010.1
20260906104534 75 167 0.0 0.0 0.00 0.00 0.00 78 1010.1
20260906104029 75 167 0.0 0.0 0.00 0.00 0.00 78 1010.1
20260906103028 75 167 0.0 0.0 0.00 0.00 0.00 78 1010.2
20260906102629 75 167 0.0 0.0 0.00 0.00 0.00 77 1010.2
20260906102027 75 167 0.0 0.0 0.00 0.00 0.00 77 1010.1
20260906101527 76 167 0.0 0.0 0.00 0.00 0.00 76 1010.2
20260906101027 76 167 0.0 0.0 0.00 0.00 0.00 76 1010.1
20260906100526 76 167 0.0 0.0 0.00 0.00 0.00 76 1010.1
20260906100032 76 167 0.0 0.0 0.00 0.00 0.00 76 1010.1
20260906095529 76 167 0.0 0.0 0.00 0.00 0.00 76 1010.1
20260906095025 76 167 0.0 2.0 0.00 0.00 0.00 76 1010.0
20260906094551 76 167 0.0 2.0 0.00 0.00 0.00 76 1009.9
20260906094030 76 165 0.0 2.0 0.00 0.00 0.00 76 1009.9
20260906093040 76 165 1.0 2.0 0.00 0.00 0.00 77 1009.8
20260906092527 76 165 1.0 2.0 0.00 0.00 0.00 77 1009.7
20260906092126 75 165 0.0 1.0 0.00 0.00 0.00 77 1009.8
20260906091525 75 165 0.0 2.0 0.00 0.00 0.00 77 1009.7
20260906091025 75 165 0.0 2.0 0.00 0.00 0.00 77 1009.7
20260906090524 75 165 1.0 3.0 0.00 0.00 0.00 76 1009.6
20260906090030 75 165 2.0 4.0 0.00 0.00 0.00 77 1009.6
20260906085527 75 165 0.0 1.0 0.00 0.00 0.00 76 1009.6
20260906085023 76 165 0.0 0.0 0.00 0.00 0.00 75 1009.5
20260906084523 76 165 0.0 0.0 0.00 0.00 0.00 75 1009.4
20260906084025 76 165 0.0 0.0 0.00 0.00 0.00 75 1009.3
20260906083035 76 165 0.0 0.0 0.00 0.00 0.00 75 1009.3
20260906082522 76 165 0.0 0.0 0.00 0.00 0.00 75 1009.3
20260906082024 76 165 0.0 0.0 0.00 0.00 0.00 75 1009.3
20260906081520 76 165 0.0 0.0 0.00 0.00 0.00 75 1009.3
20260906081019 76 165 0.0 0.0 0.00 0.00 0.00 74 1009.4
20260906080520 76 165 0.0 0.0 0.00 0.00 0.00 74 1009.3
20260906080018 76 165 0.0 0.0 0.00 0.00 0.00 74 1009.3
20260906075518 76 165 0.0 0.0 0.00 0.00 0.00 73 1009.3
20260906075018 76 165 0.0 0.0 0.00 0.00 0.00 73 1009.4
20260906074521 77 165 0.0 0.0 0.00 0.00 0.00 73 1009.4
20260906074016 77 165 0.0 0.0 0.00 0.00 0.00 71 1009.4
20260906073023 77 165 0.0 0.0 0.00 0.00 0.00 71 1009.6
20260906072516 77 165 0.0 0.0 0.00 0.00 0.00 71 1009.6
20260906072015 77 165 0.0 0.0 0.00 0.00 0.00 71 1009.5
20260906071514 77 165 0.0 0.0 0.00 0.00 0.00 71 1009.6
20260906071014 77 165 0.0 0.0 0.00 0.00 0.00 71 1009.5
20260906070516 78 165 0.0 0.0 0.00 0.00 0.00 70 1009.5
20260906070013 78 165 0.0 0.0 0.00 0.00 0.00 69 1009.6
20260906065513 78 165 0.0 0.0 0.00 0.00 0.00 69 1009.6
20260906065012 78 165 0.0 0.0 0.00 0.00 0.00 68 1009.5
20260906064512 78 165 0.0 0.0 0.00 0.00 0.00 68 1009.6
20260906064012 78 165 0.0 0.0 0.00 0.00 0.00 68 1009.6
20260906063015 78 165 0.0 0.0 0.00 0.00 0.00 68 1009.7
20260906062514 78 165 0.0 0.0 0.00 0.00 0.00 69 1009.7
20260906062011 78 165 0.0 0.0 0.00 0.00 0.00 69 1009.7
20260906061511 78 165 0.0 1.0 0.00 0.00 0.00 70 1009.7
20260906061009 78 165 0.0 1.0 0.00 0.00 0.00 68 1009.6
20260906060510 79 165 0.0 1.0 0.00 0.00 0.00 68 1009.5
20260906060008 79 165 0.0 0.0 0.00 0.00 0.00 67 1009.6
20260906055507 79 165 0.0 0.0 0.00 0.00 0.00 67 1009.7
20260906055006 80 165 0.0 0.0 0.00 0.00 0.00 66 1009.6
20260906054505 80 165 0.0 0.0 0.00 0.00 0.00 65 1009.6
20260906054004 80 165 0.0 0.0 0.00 0.00 0.00 64 1009.6
20260906053002 81 165 0.0 0.0 0.00 0.00 0.00 63 1009.6
20260906052502 81 165 0.0 0.0 0.00 0.00 0.00 63 1009.5
20260906052001 81 165 0.0 0.0 0.00 0.00 0.00 63 1009.6
20260906051500 81 165 0.0 0.0 0.00 0.00 0.00 63 1009.5
20260906051100 81 165 0.0 0.0 0.00 0.00 0.00 63 1009.4
20260906050559 81 165 0.0 0.0 0.00 0.00 0.00 63 1009.4
20260906050106 81 165 0.0 0.0 0.00 0.00 0.00 62 1009.4
20260906045559 81 165 0.0 2.0 0.00 0.00 0.00 62 1009.4
20260906045058 81 165 0.0 2.0 0.00 0.00 0.00 62 1009.4
20260906044602 81 165 0.0 2.0 0.00 0.00 0.00 63 1009.3
20260906044057 81 165 0.0 2.0 0.00 0.00 0.00 63 1009.3
20260906043657 82 165 1.0 2.0 0.00 0.00 0.00 63 1009.4
20260906043058 82 165 0.0 1.0 0.00 0.00 0.00 63 1009.4
20260906042557 82 165 0.0 1.0 0.00 0.00 0.00 63 1009.4
20260906042056 82 165 0.0 1.0 0.00 0.00 0.00 62 1009.4
20260906041557 82 165 0.0 3.0 0.00 0.00 0.00 62 1009.4
20260906041056 82 165 1.0 3.0 0.00 0.00 0.00 62 1009.4
20260906040555 83 165 0.0 2.0 0.00 0.00 0.00 61 1009.4
20260906035554 83 165 1.0 2.0 0.00 0.00 0.00 61 1009.3
20260906035054 83 165 0.0 1.0 0.00 0.00 0.00 61 1009.3
20260906034554 83 165 0.0 1.0 0.00 0.00 0.00 60 1009.3
20260906034054 83 165 0.0 1.0 0.00 0.00 0.00 60 1009.3
20260906033654 84 165 0.0 1.0 0.00 0.00 0.00 59 1009.4
20260906033054 84 165 0.0 1.0 0.00 0.00 0.00 59 1009.4
20260906032554 84 165 0.0 2.0 0.00 0.00 0.00 59 1009.4
20260906032054 84 165 0.0 3.0 0.00 0.00 0.00 59 1009.4
20260906031554 84 165 2.0 3.0 0.00 0.00 0.00 58 1009.4
20260906031054 84 165 0.0 0.0 0.00 0.00 0.00 59 1009.4
20260906030554 84 165 0.0 2.0 0.00 0.00 0.00 58 1009.4
20260906030057 84 165 0.0 2.0 0.00 0.00 0.00 58 1009.4
20260906025554 84 165 1.0 2.0 0.00 0.00 0.00 58 1009.4
20260906025054 84 165 1.0 3.0 0.00 0.00 0.00 58 1009.3
20260906024559 84 165 1.0 3.0 0.00 0.00 0.00 58 1009.3
20260906024056 84 165 1.0 4.0 0.00 0.00 0.00 57 1009.3
20260906023656 85 165 0.0 2.0 0.00 0.00 0.00 56 1009.2
20260906023052 86 165 0.0 2.0 0.00 0.00 0.00 55 1009.2
20260906022552 86 165 1.0 3.0 0.00 0.00 0.00 54 1009.1
20260906022053 86 165 1.0 3.0 0.00 0.00 0.00 54 1009.1
20260906021552 86 165 1.0 2.0 0.00 0.00 0.00 53 1008.9
20260906021051 86 165 0.0 0.0 0.00 0.00 0.00 53 1008.7
20260906020552 87 165 0.0 0.0 0.00 0.00 0.00 52 1008.6
20260906020052 87 165 0.0 0.0 0.00 0.00 0.00 52 1008.5
20260906015551 87 165 0.0 0.0 0.00 0.00 0.00 52 1008.6
20260906015051 88 165 0.0 0.0 0.00 0.00 0.00 51 1008.5
20260906014632 88 165 0.0 0.0 0.00 0.00 0.00 51 1008.3
20260906014050 88 165 0.0 1.0 0.00 0.00 0.00 50 1008.2
20260906013651 89 165 1.0 2.0 0.00 0.00 0.00 49 1008.1
20260906013059 89 165 0.0 2.0 0.00 0.00 0.00 49 1008.1
20260906012551 89 165 1.0 2.0 0.00 0.00 0.00 48 1008.0
20260906012051 90 165 1.0 2.0 0.00 0.00 0.00 47 1008.0
20260906011558 90 165 0.0 1.0 0.00 0.00 0.00 47 1008.0
20260906011051 90 165 0.0 2.0 0.00 0.00 0.00 46 1008.0
20260906010551 91 165 0.0 3.0 0.00 0.00 0.00 46 1007.9
20260906010054 91 165 2.0 5.0 0.00 0.00 0.00 45 1007.9
20260906005551 91 165 3.0 5.0 0.00 0.00 0.00 45 1007.8
20260906005051 92 165 3.0 5.0 0.00 0.00 0.00 44 1007.7
20260906004558 92 136 1.0 3.0 0.00 0.00 0.00 44 1007.7
20260906004050 92 136 2.0 5.0 0.00 0.00 0.00 43 1007.7
20260906003650 93 135 4.0 9.0 0.00 0.00 0.00 42 1007.8
20260906003059 94 134 5.0 9.0 0.00 0.00 0.00 42 1007.7
20260906002550 94 130 5.0 8.0 0.00 0.00 0.00 41 1007.7
20260906002050 94 141 2.0 4.0 0.00 0.00 0.00 40 1007.7
20260906001550 95 141 2.0 5.0 0.00 0.00 0.00 40 1007.7
20260906001049 95 142 3.0 5.0 0.00 0.00 0.00 39 1007.7
20260906000552 96 144 3.0 7.0 0.00 0.00 0.00 38 1007.7
20260906000048 96 131 5.0 8.0 0.00 0.00 0.00 37 1007.7
20260905235548 97 95 4.0 9.0 0.00 0.00 0.00 37 1007.7
20260905235049 97 115 3.0 7.0 0.00 0.00 0.00 36 1007.7
20260905234551 97 113 4.0 8.0 0.00 0.00 0.00 36 1007.7
20260905234048 97 96 5.0 9.0 0.00 0.00 0.00 35 1007.7
20260905233648 98 86 3.0 9.0 0.00 0.00 0.00 35 1007.7
20260905233049 98 90 3.0 10.0 0.00 0.00 0.00 35 1007.7
20260905232549 98 61 4.0 12.0 0.00 0.00 0.00 35 1007.7
20260905232049 98 80 5.0 13.0 0.00 0.00 0.00 35 1007.7
20260905231549 99 90 8.0 12.0 0.00 0.00 0.00 35 1007.7
20260905231048 98 85 3.0 8.0 0.00 0.00 0.00 35 1007.6
20260905230548 98 113 2.0 5.0 0.00 0.00 0.00 34 1007.6
20260905230048 98 28 2.0 4.0 0.00 0.00 0.00 34 1007.7
20260905225547 98 59 0.0 1.0 0.00 0.00 0.00 35 1007.7
20260905225049 98 59 0.0 2.0 0.00 0.00 0.00 35 1007.5
20260905224548 98 59 0.0 2.0 0.00 0.00 0.00 34 1007.5
20260905224047 98 59 0.0 2.0 0.00 0.00 0.00 34 1007.5
20260905223647 98 58 0.0 8.0 0.00 0.00 0.00 34 1007.6
20260905223047 98 58 0.0 8.0 0.00 0.00 0.00 34 1007.6
20260905222546 98 69 5.0 8.0 0.00 0.00 0.00 34 1007.6
20260905222046 99 92 3.0 8.0 0.00 0.00 0.00 33 1007.5
20260905221606 99 52 0.0 10.0 0.00 0.00 0.00 34 1007.6
20260905221047 100 68 6.0 10.0 0.00 0.00 0.00 34 1007.6
20260905220545 100 164 2.0 7.0 0.00 0.00 0.00 33 1007.7
20260905220046 100 196 1.0 7.0 0.00 0.00 0.00 34 1007.6
20260905215545 99 148 5.0 9.0 0.00 0.00 0.00 34 1007.7
20260905215044 100 136 6.0 9.0 0.00 0.00 0.00 33 1007.7
20260905214543 99 52 2.0 10.0 0.00 0.00 0.00 34 1007.8
20260905214044 99 67 5.0 10.0 0.00 0.00 0.00 34 1007.8
20260905213645 100 91 2.0 11.0 0.00 0.00 0.00 33 1007.8
20260905213056 100 79 3.0 11.0 0.00 0.00 0.00 33 1007.8
20260905212541 100 65 2.0 6.0 0.00 0.00 0.00 33 1007.9
20260905212040 100 11 1.0 5.0 0.00 0.00 0.00 33 1008.0
20260905211544 100 38 3.0 6.0 0.00 0.00 0.00 33 1008.0
20260905211040 100 19 2.0 6.0 0.00 0.00 0.00 33 1008.1
20260905210538 100 26 1.0 5.0 0.00 0.00 0.00 34 1008.1
20260905210049 99 294 0.0 7.0 0.00 0.00 0.00 35 1008.2
20260905205537 98 84 1.0 7.0 0.00 0.00 0.00 35 1008.4
20260905205037 98 107 4.0 8.0 0.00 0.00 0.00 35 1008.5
20260905204544 98 93 4.0 8.0 0.00 0.00 0.00 36 1008.5
20260905204035 99 78 4.0 8.0 0.00 0.00 0.00 35 1008.6
20260905203634 100 26 3.0 9.0 0.00 0.00 0.00 34 1008.8
20260905203040 100 20 4.0 11.0 0.00 0.00 0.00 34 1008.8
20260905202534 100 28 4.0 11.0 0.00 0.00 0.00 34 1008.9
20260905202034 100 34 4.0 14.0 0.00 0.00 0.00 34 1008.9
20260905201534 100 175 5.0 14.0 0.00 0.00 0.00 34 1008.9
20260905201032 100 115 4.0 7.0 0.00 0.00 0.00 34 1009.0
20260905200531 99 314 1.0 8.0 0.00 0.00 0.00 35 1009.1
20260905200035 99 71 3.0 8.0 0.00 0.00 0.00 35 1009.2
20260905195532 98 259 2.0 9.0 0.00 0.00 0.00 35 1009.3
20260905195029 98 168 3.0 11.0 0.00 0.00 0.00 35 1009.4
20260905194529 99 210 4.0 11.0 0.00 0.00 0.00 36 1009.4
20260905194028 99 108 5.0 10.0 0.00 0.00 0.00 35 1009.5
20260905193630 98 65 2.0 7.0 0.00 0.00 0.00 37 1009.6
20260905193026 98 85 3.0 10.0 0.00 0.00 0.00 37 1009.7
20260905192525 98 102 4.0 10.0 0.00 0.00 0.00 37 1009.7
20260905192025 99 45 6.0 10.0 0.00 0.00 0.00 36 1009.8
20260905191523 99 314 2.0 8.0 0.00 0.00 0.00 36 1010.0
20260905191023 98 346 3.0 10.0 0.00 0.00 0.00 37 1010.0
20260905190521 98 5 2.0 10.0 0.00 0.00 0.00 37 1010.1
20260905190022 97 39 2.0 8.0 0.00 0.00 0.00 38 1010.1
20260905185519 97 49 4.0 12.0 0.00 0.00 0.00 38 1010.2
20260905185019 97 82 7.0 12.0 0.00 0.00 0.00 38 1010.3
20260905184531 97 257 1.0 7.0 0.00 0.00 0.00 39 1010.4
20260905184019 97 66 4.0 11.0 0.00 0.00 0.00 40 1010.5
20260905183619 97 46 8.0 12.0 0.00 0.00 0.00 39 1010.5
20260905183019 97 86 7.0 12.0 0.00 0.00 0.00 40 1010.5
20260905182522 96 29 3.0 10.0 0.00 0.00 0.00 41 1010.6
20260905182021 96 68 6.0 10.0 0.00 0.00 0.00 40 1010.7
20260905181515 96 107 2.0 8.0 0.00 0.00 0.00 41 1010.7
20260905181017 96 121 2.0 8.0 0.00 0.00 0.00 41 1010.8
20260905180516 96 134 3.0 8.0 0.00 0.00 0.00 41 1010.9
20260905180017 96 125 2.0 9.0 0.00 0.00 0.00 41 1011.0
20260905175516 96 92 4.0 9.0 0.00 0.00 0.00 41 1011.0
20260905175014 95 180 4.0 8.0 0.00 0.00 0.00 42 1011.1
20260905174513 95 105 5.0 10.0 0.00 0.00 0.00 42 1011.2
20260905174013 95 171 3.0 10.0 0.00 0.00 0.00 42 1011.3
20260905173613 95 122 3.0 8.0 0.00 0.00 0.00 42 1011.4
20260905173013 95 115 5.0 11.0 0.00 0.00 0.00 43 1011.4
20260905172513 94 130 3.0 11.0 0.00 0.00 0.00 43 1011.5